Regional Weather Roundup
Issued by NWS

Home | Current Version | Previous Version | Text Only | Print | Product List | Glossary Off
Versions: 1 2 3 4 5 6 7 8 9 10 11 12 13 14 15 16 17 18 19 20 21 22 23 24 25 26 27 28 29 30 31 32 33 34 35 36 37 38 39 40 41 42 43 44 45 46 47 48 49 50

000
ASUS45 KCYS 180010
RWRWY

WYOMING REGIONAL WEATHER ROUNDUP
NATIONAL WEATHER SERVICE CHEYENNE WY
600 PM MDT FRI APR 17 2015

NOTE:  "FAIR" INDICATES FEW OR NO CLOUDS BELOW 12,000 FEET
WITH NO SIGNIFICANT WEATHER AND/OR OBSTRUCTIONS TO VISIBILITY.

WYZ001-180100-
YELLOWSTONE NATIONAL PARK

CITY           SKY/WX    TMP DP  RH WIND       PRES   REMARKS
LK YELLOWSTONE   N/A     51   8  17 CALM      30.13F
6HR MIN TEMP:  45; 6HR MAX TEMP:  53;

W YELLOWSTONE  NOT AVBL

$$
WYZ002>013-054>058-071-098>099-180100-
NORTHERN WYOMING

CITY           SKY/WX    TMP DP  RH WIND       PRES   REMARKS
JACKSON        FAIR      61  12  15 N10       30.05S
CODY           FAIR      57  27  30 N3        30.08F
GREYBULL       FAIR      64  27  24 VRB6      30.04F
6HR MIN TEMP:  53; 6HR MAX TEMP:  65;

WORLAND        FAIR      61  28  28 CALM      30.06F
6HR MIN TEMP:  51; 6HR MAX TEMP:  62;

SHERIDAN       FAIR      61  33  35 S5        30.08S
6HR MIN TEMP:  57; 6HR MAX TEMP:  63;

BUFFALO        FAIR      60  29  30 NE7       30.11F
6HR MIN TEMP:  55; 6HR MAX TEMP:  61;

GILLETTE       CLOUDY    56  39  53 S10       30.09F
6HR MIN TEMP:  55; 6HR MAX TEMP:  62;

HULETT         FAIR      59  34  38 E10       30.11F
NEWCASTLE      RAIN      45  43  93 SE3       30.14R

$$
WYZ014>020-022>026-101>103-180100-
CENTRAL WYOMING

CITY           SKY/WX    TMP DP  RH WIND       PRES   REMARKS
BIG PINEY      FAIR      54  29  38 S14       30.08R
6HR MIN TEMP:  54; 6HR MAX TEMP:  62;

PINEDALE       FAIR      52   9  17 E13G18    30.09S
DUBOIS         FAIR      50  21  32 E12G21    30.11S
LANDER         CLOUDY    54  27  35 N13       30.07F
6HR MIN TEMP:  47; 6HR MAX TEMP:  56;

RIVERTON       FAIR      54  29  38 NE13      30.09S
6HR MIN TEMP:  50; 6HR MAX TEMP:  58;

CASPER         RAIN      34  32  92 E9        30.13F FOG     WCI  27
6HR MIN TEMP:  34; 6HR MAX TEMP:  41; 6HR PCP:  0.38;

DOUGLAS        CLOUDY    36  35  96 W12       30.12F WCI  28
6HR MIN TEMP:  36; 6HR MAX TEMP:  41; 6HR PCP:  0.63;


$$
WYZ021-027>030-104>119-180100-
SOUTHERN WYOMING

CITY           SKY/WX    TMP DP  RH WIND       PRES   REMARKS
EVANSTON       CLOUDY    41  33  73 E22G29    30.10F
6HR MIN TEMP:  37; 6HR MAX TEMP:  45;

KEMMERER       FAIR      43  34  70 S10       30.12S
FORT BRIDGER   CLOUDY    39  39 100 SE13      30.14F WCI  32
ROCK SPRINGS   LGT RAIN  36  34  92 NE15      30.10S WCI  27
6HR MIN TEMP:  36; 6HR MAX TEMP:  39; 6HR PCP: TRACE;

DIXON          CLOUDY    43  32  65 N20G26    30.02F
RAWLINS        LGT SNOW  35  32  88 NE12      30.09R FOG     WCI  27
6HR MIN TEMP:  32; 6HR MAX TEMP:  37; 6HR PCP:  0.09;

SARATOGA       CLOUDY    34  32  93 N12G18    30.05F WCI  25
LARAMIE        CLOUDY    33  28  81 NE13      30.02F WCI  24
6HR MIN TEMP:  31; 6HR MAX TEMP:  36; 6HR PCP:  0.06;

CHEYENNE       PTSUNNY   36  32  85 N16       30.01F WCI  26
6HR MIN TEMP:  33; 6HR MAX TEMP:  37; 6HR PCP:  0.61;

TORRINGTON     HVY RAIN  44  42  93 SE15      30.09R FOG
6HR MIN TEMP:  44; 6HR MAX TEMP:  46; 6HR PCP:  0.09;

PINE BLUFFS    MOCLDY    41  37  87 NW16      30.03R

$$



USA.gov is the U.S. government's official web portal to all federal, state and local government web resources and services.